Location: Lugrin
(46.4033°N, 6.6674°E)
Time: 01:44:59
(UTC+00:00)

ATLAS 2AS CENTAUR R/B - Pass Details

Date: 18 September 2020
Orbit: 939 x 1273 km, 63.7° (Epoch: 27 October)

Event Time Altitude Azimuth Distance (km) Brightness Sun altitude
Exits shadow 22:59:06 18° 279° (W) 2,675 4.8 -41.8°
Maximum altitude 23:03:57 33° 331° (NNW) 1,981 4.3 -41.9°
Drops below altitude 10° 23:10:51 10° 33° (NNE) 3,189 5.6 -42.1°
Sets 23:13:56 0° 43° (NE) 4,114 6.2 -42.1°
